Location: Gleizolles
(44.4833°N, 6.7667°E)
Time: 21:17:53
(UTC+00:00)

Tiros 1 despin weight - Pass Details

Date: 26 June 2024
Orbit: 576 x 620 km, 48.2° (Epoch: 19 July)

Event Time Altitude Azimuth Distance (km) Brightness Sun altitude
Rises 15:19:15 0° 292° (WNW) 2,897 ? 40.2°
Reaches altitude 10° 15:21:35 10° 289° (WNW) 1,988 ? 39.8°
Maximum altitude 15:26:08 66° 208° (SSW) 676 ? 39.0°
Drops below altitude 10° 15:30:36 10° 127° (SE) 1,964 ? 38.2°
Sets 15:32:54 0° 124° (SE) 2,860 ? 37.8°
